Weather History for Hamilton, OH

Change the Weather History Date:

Friday, February 21, 2014

  Actual Average (KCVG) Record (KCVG)
Temperature  
Mean Temperature 40 °F 36 °F  
Max Temperature 50 °F 45 °F 70 °F (1930)
Min Temperature 30 °F 27 °F -10 °F (1885)
Degree Days  
Heating Degree Days 25 29  
Month to date heating degree days 660  
Since 1 July heating degree days 3632  
Cooling Degree Days 0 0  
Month to date cooling degree days 0  
Year to date cooling degree days 0  
Moisture  
Dew Point 29 °F    
Average Humidity 63    
Maximum Humidity 97    
Minimum Humidity 32    
Precipitation  
Precipitation 0.03 in 0.10 in 2.73 in (1874)
Month to date precipitation 2.12  
Year to date precipitation 5.12  
Snow  
Snow 0.00 in 0.20 in 5.00 in (1893)
Month to date snowfall 5.2  
Since 1 July snowfall 17.3  
Snow Depth -    
Sea Level Pressure  
Sea Level Pressure 29.83 in    
Wind  
Wind Speed 12 mph (WSW)    
Max Wind Speed 23 mph    
Max Gust Speed 37 mph    
Visibility 10 miles    
Events Rain    
T = Trace of Precipitation, MM = Missing Value Source: NWS Daily Summary

Daily Weather History Graph

Daily Weather History Graph

Search for Another Location

Airport:

Trip Planner

Search our weather history database for the weather conditions in past years. The results will help you decide how hot, cold, wet, or windy it might be!

Date:

Astronomy

Feb. 21, 2014 Rise Set
Actual Time 7:22 AM EST 6:21 PM EST
Civil Twilight 6:54 AM EST 6:48 PM EST
Nautical Twilight 6:23 AM EST 7:20 PM EST
Astronomical Twilight 5:52 AM EST 7:51 PM EST
Moon 12:12 AM EST (2/21) 10:48 AM EST (2/21)
Length of Visible Light 11h 53m
Length of Day
10h 59m
Waning Gibbous, 61% of the Moon is Illuminated
Feb 21
Waning Gibbous
Feb 22
Last Quarter
Mar 1
New
Mar 8
First Quarter
Mar 16
Full

Hourly Weather History & Observations

Time (EST) Temp. Windchill Dew Point Humidity Pressure Visibility Wind Dir Wind Speed Gust Speed Precip Events Conditions
12:28 AM 50.0 °F - 48.0 °F 93% 29.61 in 10.0 mi West 12.7 mph 23.0 mph 0.02 in   Overcast
12:49 AM 46.4 °F 39.2 °F 42.8 °F 87% 29.65 in 10.0 mi West 18.4 mph 28.8 mph 0.02 in Rain Light Rain
12:53 AM 46.9 °F - 42.1 °F 83% 29.65 in 10.0 mi West 16.1 mph 28.8 mph 0.02 in   Overcast
1:53 AM 42.1 °F 36.6 °F 41.0 °F 96% 29.68 in 10.0 mi WNW 9.2 mph - 0.01 in   Overcast
2:53 AM 41.0 °F 36.4 °F 39.9 °F 96% 29.73 in 10.0 mi WSW 6.9 mph 17.3 mph N/A   Overcast
3:53 AM 39.9 °F 34.5 °F 39.0 °F 97% 29.72 in 10.0 mi WSW 8.1 mph - N/A   Partly Cloudy
4:53 AM 39.0 °F 33.4 °F 37.9 °F 96% 29.75 in 10.0 mi SW 8.1 mph - N/A   Clear
5:53 AM 39.0 °F 32.8 °F 30.9 °F 73% 29.76 in 10.0 mi SW 9.2 mph - N/A   Partly Cloudy
6:53 AM 37.9 °F 32.1 °F 30.0 °F 73% 29.76 in 10.0 mi SW 8.1 mph 17.3 mph N/A   Clear
7:53 AM 37.9 °F 31.5 °F 30.0 °F 73% 29.78 in 10.0 mi SW 9.2 mph 18.4 mph N/A   Clear
8:53 AM 41.0 °F 32.5 °F 30.0 °F 65% 29.80 in 10.0 mi SW 17.3 mph 27.6 mph N/A   Mostly Cloudy
9:53 AM 41.0 °F 33.1 °F 28.9 °F 62% 29.81 in 10.0 mi SW 15.0 mph 23.0 mph N/A   Overcast
10:53 AM 43.0 °F 35.4 °F 26.1 °F 51% 29.83 in 10.0 mi WSW 16.1 mph 28.8 mph N/A   Mostly Cloudy
11:53 AM 44.1 °F 37.1 °F 24.1 °F 45% 29.84 in 10.0 mi WSW 15.0 mph 31.1 mph N/A   Clear
12:53 PM 46.9 °F - 25.0 °F 42% 29.84 in 10.0 mi WSW 17.3 mph 33.4 mph N/A   Partly Cloudy
1:53 PM 46.9 °F - 24.1 °F 41% 29.85 in 10.0 mi WSW 23.0 mph 36.8 mph N/A   Clear
2:53 PM 48.0 °F - 21.9 °F 36% 29.87 in 10.0 mi West 18.4 mph 32.2 mph N/A   Clear
3:53 PM 48.0 °F - 19.9 °F 33% 29.90 in 10.0 mi WSW 17.3 mph 28.8 mph N/A   Clear
4:53 PM 46.9 °F - 18.0 °F 32% 29.92 in 10.0 mi WSW 19.6 mph 28.8 mph N/A   Clear
5:53 PM 45.0 °F 39.3 °F 19.0 °F 36% 29.95 in 10.0 mi WSW 11.5 mph 18.4 mph N/A   Clear
6:53 PM 39.0 °F 35.7 °F 23.0 °F 53% 29.97 in 10.0 mi WSW 4.6 mph - N/A   Clear
7:53 PM 37.9 °F 33.5 °F 23.0 °F 55% 29.99 in 10.0 mi SW 5.8 mph - N/A   Clear
8:53 PM 37.9 °F 34.4 °F 21.0 °F 51% 29.99 in 10.0 mi SW 4.6 mph - N/A   Clear
9:53 PM 37.9 °F 35.5 °F 19.0 °F 47% 30.00 in 10.0 mi SSW 3.5 mph - N/A   Clear
10:53 PM 30.0 °F 26.5 °F 19.0 °F 64% 29.99 in 10.0 mi SSE 3.5 mph - N/A   Clear
11:53 PM 33.1 °F 27.7 °F 19.9 °F 59% 29.98 in 10.0 mi ESE 5.8 mph - N/A   Clear